Wind_Speed
27 26 24 24 23 21 20 19 18 16 15 16 16 16 15 12 10 8 10 14 18 19 20 21 23 24 12 7 2 1 2 5 5 7 11 6 10 2 2 1 1 2 1 3 4 7 10
31 30 28 27 25 24 22 22 20 21 18 19 20 19 19 15 13 12 10 12 16 19 19 22 21 21 7 10 1 2 1 1 4 6 7 10 6 5 3 1 3 2 7 9 5 5 4
30 31 29 27 29 27 27 24 17 17 19 16 19 20 20 19 14 13 12 15 15 16 18 19 18 13 7 10 2 1 3 1 2 3 4 5 3 3 2 2 3 3 7 3 2 1 2
16 15 21 21 19 23 20 15 15 16 18 16 18 20 18 18 15 14 15 16 17 15 16 16 15 5 7 4 4 7 5 3 3 1 2 3 2 3 3 1 3 5 4 7 5 3 3
15 13 13 12 13 15 13 15 16 16 19 17 17 18 18 17 16 16 15 15 16 17 15 12 3 3 7 3 3 2 5 4 5 2 3 3 0 1 3 5 6 5 6 5 4 0 3
20 18 18 18 15 18 16 18 18 15 18 15 12 14 13 12 14 12 10 11 14 16 5 2 2 5 6 1 3 2 3 4 2 3 3 3 2 6 5 6 10 5 7 6 8 3 7
16 17 18 19 20 20 19 20 16 14 17 13 11 10 11 11 10 9 7 5 5 6 5 8 3 8 7 3 2 3 3 4 4 4 8 0 5 9 9 3 4 5 8 11 11 11 10
15 14 14 16 17 16 17 16 15 16 17 14 11 9 8 9 8 7 5 4 2 3 9 12 16 16 15 4 6 7 4 5 6 8 3 6 9 3 0 5 6 8 10 11 8 3 5
18 18 17 17 18 18 16 14 13 13 15 14 12 9 8 11 10 8 5 2 1 2 6 10 11 10 11 10 11 12 11 6 10 8 8 8 2 1 5 2 5 7 9 12 11 9 13
21 20 18 18 19 18 16 15 14 12 11 11 12 11 12 12 8 10 4 6 2 3 6 5 6 3 6 5 6 4 7 6 6 6 5 4 3 2 3 7 5 9 4 6 8 9 7
23 21 19 17 18 19 17 15 14 14 12 11 12 13 15 18 6 8 4 10 8 2 6 6 5 6 6 6 9 4 5 5 5 6 4 5 4 4 7 4 3 6 7 8 9 9 8
25 24 21 18 19 20 17 15 12 14 13 12 12 14 19 20 6 7 12 15 7 3 8 5 5 6 8 5 4 6 4 3 2 3 3 5 1 4 2 2 3 7 7 7 7 8 9
27 26 24 22 20 21 19 16 13 10 13 13 12 14 21 18 8 13 20 10 5 7 2 6 6 8 11 8 6 6 8 7 3 4 4 4 4 3 3 4 6 9 6 5 5 5 7
28 30 29 27 25 23 21 18 15 11 11 10 11 15 20 16 12 21 11 5 8 5 8 2 5 9 7 7 3 4 7 6 4 3 2 3 5 8 4 2 4 2 5 5 6 6 11
30 31 31 29 27 26 23 21 17 13 11 11 11 20 12 16 19 21 5 9 9 12 5 7 8 11 6 5 3 6 7 4 2 7 4 4 3 4 3 3 2 2 4 5 9 14 12
30 32 33 32 29 28 26 23 19 16 15 12 13 10 5 13 20 9 4 14 5 0 1 4 9 6 12 11 8 8 8 3 4 1 2 2 3 3 2 3 6 5 7 6 5 5 9
28 31 32 33 32 30 28 24 22 20 20 15 8 4 7 17 15 3 6 14 6 4 2 1 4 4 4 6 7 7 6 4 3 4 3 5 3 5 4 7 8 8 9 6 7 10 11
29 30 31 35 33 33 30 28 25 23 22 20 5 5 9 22 4 2 8 11 4 9 2 2 1 2 4 4 5 3 5 2 4 5 3 2 2 8 11 8 6 9 11 9 6 7 5
32 33 32 34 34 35 34 31 29 27 28 14 4 3 2 6 6 6 1 5 4 7 6 3 2 1 2 3 3 4 5 2 1 2 2 4 4 5 6 6 6 6 2 3 6 6 14
33 35 35 33 36 36 36 34 32 30 30 18 3 4 1 1 1 8 7 10 9 2 4 3 3 3 3 3 1 5 6 3 2 3 4 1 7 9 10 7 6 11 13 12 13 8 15
32 36 35 38 33 37 37 37 34 32 32 16 3 5 6 10 7 7 14 14 15 7 4 4 4 7 6 5 7 6 7 5 3 3 4 4 8 11 13 14 14 15 15 17 19 20 20
33 38 38 37 40 34 36 38 39 33 34 12 5 4 5 3 18 17 13 13 14 11 11 8 8 9 11 11 9 6 8 7 6 4 7 5 6 3 6 14 16 18 14 19 23 22 23
29 38 40 37 41 40 37 40 41 37 35 6 6 2 4 7 14 15 14 11 13 13 5 5 12 7 10 10 2 2 3 3 3 6 8 7 7 6 11 8 10 14 15 17 16 15 14
29 36 43 45 47 43 40 40 41 42 40 6 9 7 4 5 11 14 13 14 13 16 7 7 6 9 4 4 3 3 6 8 11 13 13 9 11 8 8 10 11 1 2 10 14 18 19
29 34 44 43 32 45 45 40 38 41 42 14 10 3 5 4 8 9 9 14 11 9 8 5 5 3 5 4 3 5 5 5 10 18 17 16 12 7 7 10 15 18 10 6 11 13 12
27 33 52 43 42 39 43 41 39 38 38 20 13 7 1 6 10 12 12 14 8 10 8 7 4 7 3 3 4 5 5 3 5 6 3 14 14 9 9 7 10 2 2 3 5 14 7
23 33 49 48 45 40 40 39 34 34 34 28 11 18 6 2 3 9 10 13 6 7 4 5 6 6 9 6 6 6 6 4 6 8 7 7 9 14 13 11 9 7 3 2 6 2 3
15 47 47 45 44 45 42 38 34 34 31 25 18 20 9 1 3 1 2 5 6 7 5 6 6 3 7 8 5 5 5 7 6 9 11 10 7 6 8 9 11 5 6 5 4 1 4
18 27 41 35 36 37 35 36 33 32 27 26 11 14 15 4 2 1 0 2 1 6 5 7 2 8 6 7 6 3 5 3 8 6 12 9 10 6 6 5 3 5 11 7 5 11 12
Wind_Direction
251 250 250 251 254 255 255 258 260 261 269 276 277 278 276 280 287 293 306 318 322 325 329 330 337 343 354 295 289 210 41 9 360 357 17 13 33 358 91 43 318 229 207 252 234 250 254
252 252 252 253 254 254 262 261 263 264 258 265 270 272 271 272 278 285 294 301 309 319 325 324 331 338 322 285 235 238 177 39 7 2 24 30 27 21 59 3 296 332 288 282 285 256 217
251 249 251 257 256 253 252 250 252 262 264 260 268 265 267 272 270 274 285 289 298 310 317 321 325 336 273 278 220 290 212 226 3 358 11 45 36 328 345 256 340 294 277 210 197 27 108
230 228 232 236 233 235 225 237 248 266 270 267 269 264 260 263 261 266 272 279 295 304 308 313 320 316 270 248 260 263 232 227 165 73 44 35 51 81 319 322 233 263 244 219 127 179 119
264 260 262 243 244 259 256 252 261 270 272 269 268 267 265 258 257 265 263 275 289 294 298 308 316 269 272 272 243 206 192 200 164 105 83 100 269 47 212 266 239 209 277 264 226 294 183
263 260 261 262 259 259 260 268 269 268 270 266 265 269 260 258 259 250 255 273 288 294 289 286 204 253 241 44 96 152 169 174 217 167 209 212 236 268 214 272 289 313 278 248 274 149 269
263 258 250 253 252 256 260 252 249 243 250 260 265 261 246 235 236 229 236 283 256 207 214 260 322 286 277 301 205 225 185 196 203 230 267 260 278 281 333 318 323 292 272 280 287 282 287
252 252 248 249 249 249 246 247 248 244 243 247 253 251 237 220 204 203 216 242 2 7 292 261 259 260 261 279 262 188 191 234 224 254 201 242 267 3 289 296 272 257 277 284 283 354 256
252 246 249 254 254 240 239 248 249 251 248 245 234 229 215 201 193 179 206 176 228 350 267 280 247 258 246 211 249 269 224 232 236 229 227 260 64 249 295 182 250 262 278 286 282 310 261
244 246 244 244 248 234 228 232 247 251 251 238 237 221 204 183 172 169 190 202 235 349 274 219 204 184 173 196 201 189 226 208 202 238 214 258 82 220 243 283 276 289 14 295 282 292 290
245 239 240 245 244 240 229 228 249 243 242 234 224 213 199 192 169 189 163 177 165 157 278 114 149 132 154 199 126 135 182 198 176 156 214 91 171 215 265 305 268 314 296 281 285 275 300
245 239 236 241 242 235 233 234 239 242 236 232 220 212 194 194 199 165 161 154 139 193 244 170 139 171 165 189 151 133 164 132 74 185 238 269 206 262 268 283 231 320 277 250 257 268 258
245 241 237 236 238 238 232 229 226 243 237 227 224 207 199 194 193 172 151 144 178 226 94 170 182 180 190 169 145 172 169 166 183 188 197 195 201 173 228 214 208 306 297 284 251 215 268
247 240 241 238 232 228 231 227 224 234 230 227 225 198 198 189 181 165 149 160 219 237 212 150 172 177 194 159 151 163 167 180 191 220 226 249 180 173 144 9 319 341 325 285 291 292 299
250 245 238 236 232 225 225 221 219 225 213 215 199 188 180 188 170 166 176 204 210 213 179 184 159 177 172 173 177 178 203 195 129 198 221 202 200 147 182 298 278 114 269 9 285 276 273
249 246 238 234 230 225 217 212 214 213 207 203 175 158 145 173 168 167 181 213 224 151 180 213 191 205 185 177 176 205 183 134 137 231 230 117 244 188 163 230 225 265 341 268 221 277 282
252 244 241 233 227 222 217 211 208 206 202 192 181 174 161 166 151 197 211 204 189 179 195 230 186 151 172 158 195 180 170 126 151 102 151 155 203 161 223 217 266 267 272 240 281 266 275
252 247 241 233 226 218 211 208 199 201 193 186 156 198 172 159 143 221 214 220 143 166 162 116 76 96 161 148 160 137 170 104 134 132 173 116 250 254 255 288 291 265 269 256 246 266 251
249 247 242 230 224 217 209 205 195 198 186 164 163 110 167 214 190 196 127 156 188 170 185 165 135 57 79 144 121 167 184 97 147 167 180 156 206 262 220 196 206 216 156 303 284 294 266
246 242 237 227 222 214 207 201 196 192 184 169 150 141 161 220 247 173 151 187 171 171 122 129 128 134 156 171 162 177 194 130 125 130 98 106 245 249 264 306 296 268 269 275 274 264 274
243 241 229 228 222 206 205 199 195 193 187 174 189 194 179 194 199 194 186 168 180 159 161 187 169 210 189 192 204 203 186 175 162 136 230 260 257 254 260 270 265 264 264 266 265 258 256
246 237 232 221 212 217 215 203 191 195 188 198 153 184 176 212 194 204 190 197 188 172 164 193 227 208 214 226 218 200 195 208 213 187 215 204 248 262 257 259 263 268 262 260 257 265 266
248 233 224 220 211 201 205 203 190 191 188 196 167 184 197 156 180 192 195 179 191 175 191 175 202 195 208 229 241 263 239 233 219 217 203 228 243 249 273 262 288 274 243 241 256 257 265
245 229 218 215 206 196 194 198 195 190 191 147 165 168 161 165 182 192 190 184 186 188 155 192 192 197 106 138 159 212 230 230 229 232 233 236 238 251 274 288 260 107 275 271 279 286 283
242 230 213 212 206 193 192 195 199 195 193 167 165 207 197 151 177 180 176 177 171 167 177 159 141 163 146 160 202 232 207 227 230 230 227 226 239 256 250 253 273 285 278 282 288 274 319
241 225 199 201 199 186 189 191 194 193 186 173 165 162 18 157 187 167 170 177 170 183 179 207 144 169 173 196 201 228 222 199 190 171 230 216 230 234 236 263 273 319 334 269 286 276 47
226 208 190 191 190 190 188 188 188 186 176 165 154 172 70 85 135 171 169 181 159 160 172 144 167 172 199 198 214 221 228 197 216 211 174 178 209 226 238 256 265 289 2 173 251 2 24
228 180 164 161 167 176 180 173 170 169 162 152 139 158 135 78 107 141 122 148 155 188 173 128 140 172 184 204 213 196 235 208 239 230 202 202 210 204 237 249 267 113 142 241 2 56 334
197 170 169 178 176 167 173 175 175 165 152 143 124 150 130 108 94 91 253 85 11 195 226 183 351 159 171 208 208 215 215 217 229 228 222 244 229 260 233 241 28 216 267 266 225 270 296
Height
833 835 835 837 839 840 840 843 843 844 843 845 845 846 846 844 844 840 841 840 840 838 835 832 829 826 821 817 811 812 812 813 812 810 808 803 799 800 800 802 802 800 800 799 796 797 797
828 829 830 832 834 836 836 839 839 842 840 841 842 842 843 842 842 841 839 839 838 837 835 832 829 827 826 819 813 812 812 812 813 811 809 806 806 804 804 805 803 805 803 799 796 794 796
821 822 825 827 830 830 832 834 834 836 839 834 837 839 840 840 839 839 837 838 835 834 833 831 829 828 825 816 813 812 812 813 812 812 809 809 809 805 806 806 807 806 804 797 796 794 795
816 817 819 821 823 825 825 828 830 833 835 831 833 834 835 837 835 836 837 835 834 830 830 829 828 829 819 810 812 812 813 813 812 812 811 811 810 808 807 807 804 802 802 792 793 793 799
814 814 817 818 820 822 824 825 826 827 831 830 829 830 830 832 831 833 834 832 831 829 828 826 826 828 813 811 810 810 810 811 811 811 810 810 810 808 808 803 799 800 789 796 792 794 794
812 811 814 817 816 819 820 822 823 821 830 827 826 827 826 828 831 829 831 830 829 827 827 824 825 828 811 807 808 811 811 811 810 809 807 806 804 802 801 797 798 793 799 795 797 790 792
808 808 810 812 812 814 818 819 818 818 826 824 824 823 824 824 824 828 831 830 830 822 823 812 809 809 807 807 807 810 810 809 808 807 808 806 804 797 801 807 808 810 807 802 794 790 800
803 806 806 809 809 810 815 816 816 817 819 821 822 821 823 823 824 825 829 826 825 828 818 811 808 808 809 809 806 806 810 808 807 806 809 807 799 799 807 810 812 809 807 801 796 797 800
802 802 803 806 806 808 810 812 814 816 817 818 817 818 820 820 824 827 826 826 828 827 819 805 802 801 804 806 802 802 806 804 805 805 806 806 801 807 809 808 810 802 805 801 802 797 788
797 801 800 802 805 804 805 810 813 812 813 813 817 816 819 821 825 823 825 826 827 829 818 797 799 795 802 801 802 802 804 801 804 803 805 804 804 808 808 808 808 807 801 804 802 800 793
792 794 797 799 800 802 804 808 809 808 810 811 812 814 815 819 817 820 820 822 826 831 824 794 798 797 796 798 795 802 804 799 800 804 806 804 807 809 811 807 808 803 802 802 799 795 795
786 789 791 793 796 799 801 804 805 808 806 807 809 811 813 814 817 814 818 822 828 831 815 795 793 796 797 798 797 799 799 797 800 803 805 804 807 809 806 807 807 805 802 797 798 792 795
781 783 784 788 792 795 798 799 802 803 805 805 807 807 812 811 813 815 815 823 830 818 795 794 794 794 793 799 798 797 799 800 798 805 805 804 804 805 807 804 803 798 799 798 796 796 789
774 777 780 780 785 788 794 796 799 800 801 803 804 806 806 808 810 813 816 818 824 789 791 795 793 793 795 797 799 800 799 798 801 800 802 804 811 804 804 804 806 806 805 808 814 801 791
767 770 773 775 779 783 786 792 795 798 798 801 803 805 805 806 807 811 814 814 796 787 788 793 793 793 799 798 798 799 796 796 799 799 806 807 810 804 805 804 805 803 805 802 810 800 800
760 763 766 769 773 777 781 784 791 793 796 798 801 803 802 805 808 812 814 797 796 798 796 795 788 789 792 794 796 797 799 802 804 805 803 806 816 807 806 806 804 805 805 812 806 821 803
753 756 758 762 766 771 776 781 785 790 793 795 799 799 802 803 808 809 801 787 795 797 796 795 794 794 789 798 793 795 798 805 803 807 803 805 816 808 807 805 802 803 803 806 805 799 801
746 749 751 755 759 765 769 775 779 785 790 792 795 794 799 803 811 809 799 789 796 795 797 797 796 794 793 800 798 808 801 800 805 803 806 808 810 808 803 797 805 805 804 804 811 803 801
738 740 744 747 752 757 763 769 774 780 782 787 791 796 799 799 794 798 806 798 795 795 795 798 798 798 802 803 809 804 805 811 808 805 807 810 809 810 801 806 807 803 807 809 808 815 810
729 732 736 739 744 750 756 764 769 774 778 783 789 793 797 799 795 789 798 797 798 799 799 799 799 801 802 803 805 808 808 809 810 807 815 814 810 810 805 804 805 809 805 806 805 814 802
720 722 726 731 736 742 750 757 764 769 774 779 781 778 777 785 789 789 787 793 790 797 797 800 802 799 801 806 804 805 805 807 809 813 813 815 815 810 807 806 805 805 806 805 802 799 801
710 713 717 722 727 735 744 749 756 765 772 777 778 772 776 769 772 782 780 779 782 789 795 799 800 799 800 798 800 805 804 806 808 812 812 814 816 822 822 807 804 804 806 802 797 795 791
700 704 709 715 721 728 736 745 750 759 767 770 772 773 766 770 773 779 773 777 784 789 799 795 800 799 800 799 807 808 807 808 808 810 811 812 810 812 801 795 798 797 794 796 786 780 781
693 694 701 707 713 721 729 738 746 752 760 764 767 769 767 774 769 772 774 780 786 790 794 797 802 799 806 809 811 812 811 810 810 809 809 808 809 807 801 800 803 780 780 778 778 774 770
683 685 692 699 699 712 722 732 741 747 755 761 765 768 763 772 771 777 780 784 789 791 797 799 802 802 807 807 806 804 801 804 798 800 802 804 805 806 805 789 776 773 771 774 773 768 763
673 673 681 692 701 706 718 727 737 744 752 758 765 769 768 767 773 776 782 782 787 790 800 801 806 808 809 806 806 802 791 786 788 793 799 798 803 804 797 799 784 767 768 777 775 769 774
663 666 673 686 696 706 714 724 732 741 748 754 763 769 775 775 777 775 778 784 786 789 787 796 804 807 808 804 802 794 790 786 786 783 795 799 799 802 793 789 772 765 774 778 782 771 775
656 656 669 679 692 702 711 720 730 737 744 753 762 768 774 780 780 780 782 784 787 786 786 797 801 806 806 802 792 789 789 783 783 776 776 780 783 790 784 788 786 769 778 776 772 775 777
660 660 667 678 691 696 710 719 727 735 744 750 761 769 772 780 785 786 786 787 787 786 786 792 789 788 790 788 783 780 784 784 780 781 774 783 771 768 770 764 764 771 768 767 770 770 770